User: anonymous   Login
Location: Observatoire de Paris
(48.8363°N, 2.3365°E)
Time: 12:49:33
(UTC+01:00)
Language:

SEEDS - Orbit

View from above orbital plane
View from above orbital plane
View from above satellite
View from above satellite

Ground track
Ground track

The orbit data is extracted from the following two-line orbital elements,

1 32791U 08021J   21263.69668448  .00000699  00000-0  75090-4 0  9997
2 32791  97.5802 244.7074 0013629  15.9529 344.2116 14.91524437726977
Epoch (UTC): 20 September 2021 16:43:13
Eccentricity: 0.0013629
inclination: 97.5802°
perigee height: 583 km
apogee height: 602 km
right ascension of ascending node: 244.7074°
argument of perigee: 15.9529°
revolutions per day: 14.91524437
mean anomaly at epoch: 344.2116°
orbit number at epoch: 72697

The dashed part of the orbit path shows where the satellite is in the earth's shadow,  

DLR